Retour au catalogue

SL-12 DEB

ActifHEO
NORAD 34667·DEBRIS·🇷🇺 Russia

Lancé Apr 4, 1991 depuis Baikonur Cosmodrome

Loading…

Prochains Passages (prochaines 24 heures)

TLE

FraisSource: Space-Track

Époque: Sep 12, 2026, 10:46 UTC

1 34667U 91025L   26255.44862814 -.00000960  00000-0 -85369-2 0  9990
2 34667  65.4437  56.3647 5462468 344.5166  11.8743  4.44299396277608

Suivez SL-12 DEB en temps réel avec AllMySat

Download on the App Store